Regional Weather Roundup
Issued by NWS Jackson, KY

Home | Current Version | Previous Version | Graphics & Text | Print | Product List | Glossary On
Versions: 1 2 3 4 5 6 7 8 9 10 11 12 13 14 15 16 17 18 19 20 21 22 23 24 25 26 27 28 29 30 31 32 33 34 35 36 37 38 39 40 41 42 43 44 45 46 47 48 49 50
000
ASUS43 KJKL 200310
RWRJKL

EAST KENTUCKY HOURLY WEATHER ROUNDUP
NATIONAL WEATHER SERVICE JACKSON KY
1000 PM EST SUN NOV 19 2017

NOTE: "FAIR" INDICATES FEW OR NO CLOUDS BELOW 12,000 FEET WITH
NO SIGNIFICANT WEATHER AND/OR OBSTRUCTIONS TO VISIBILITY.

* THESE REPORTS ARE NOT UNDER NWS QUALITY CONTROL AND MAY NOT
  REPORT WEATHER SUCH AS PRECIPITATION AND FOG.

KYZ079-080-083-085-087-088-110-112-115-119-120-200400
...EASTERN KENTUCKY...

CITY           SKY/WX    TMP DP  RH WIND       PRES   REMARKS
JACKSON        CLEAR     31  25  78 SW3       30.16R
LONDON         CLEAR     30  25  81 CALM      30.18S
SOMERSET*      CLEAR     30  30 100 CALM      30.22S
MONTICELLO*    CLEAR     24  21  88 W9        30.23R WCI  14
WILLIAMSBURG*  CLEAR     28  28 100 CALM      30.19S
MIDDLESBORO*   CLEAR     32  28  85 CALM      30.20S
HARLAN APT*    PTCLDY    34  28  80 SW5       30.17S WCI  30
PIKE CO APT*   MOCLDY    32  24  73 SW6       30.15S WCI  26
BIG SANDY APT* CLEAR     34  26  72 W5        30.16S WCI  30
MOREHEAD APT*  FLURRIES  32  25  74 W6        30.18R WCI  26
$$

KYZ035-036-041-042-044-050-067-078-099-200400
...CENTRAL KENTUCKY...

CITY           SKY/WX    TMP DP  RH WIND       PRES   REMARKS
MT STERLING*   CLEAR     30  27  86 W5        30.19R WCI  25
DANVILLE*      CLEAR     28  27  93 W3        30.20R
LEXINGTON      CLEAR     30  23  75 W5        30.19R WCI  25
FRANKFORT      CLEAR     30  22  72 W3        30.19R
LOUISVILLE     CLEAR     32  23  69 W7        30.21R WCI  26
LEBANON*         N/A     32  23  69 SW3       30.21R
GLASGOW*       CLEAR     28  24  86 CALM      30.23R
BOWLING GREEN  CLEAR     32  24  72 CALM      30.24R
$$

KYZ091>093-OHZ055-061-077-WVZ005-015-034-035-042-200400
...SOUTHERN OHIO/WEST VIRGINIA...

CITY           SKY/WX    TMP DP  RH WIND       PRES   REMARKS
COVINGTON      CLEAR     29  24  82 W6        30.16R WCI  23
COLUMBUS       CLOUDY    32  22  66 W12       30.10R WCI  23
DAYTON         PTCLDY    25  23  92 SW9       30.12S WCI  15
WILMINGTON     CLEAR     27  23  85 W8        30.13R WCI  19
HUNTINGTON     MOCLDY    35  24  64 SW7       30.14R WCI  29
CHARLESTON     MOCLDY    37  23  56 W7        30.12R WCI  32
PINEVILLE*       N/A     37  28  70 MISG      30.15R
BECKLEY        CLOUDY    31  21  66 W16G28    30.06R WCI  20
BLUEFIELD      CLOUDY    30  20  66 NW14G29   30.06R WCI  19
LOGAN CO APT*  MOCLDY    34  23  64 VRB6G14   30.11S WCI  29
$$

VAZ002-007-008-TNZ017-027-036-066-071-200400
...SOUTHWEST VIRGINIA/EAST TENNESSEE...

CITY           SKY/WX    TMP DP  RH WIND       PRES   REMARKS
WISE*          PTCLDY    32  27  80 W7        30.12R WCI  26
JONESVILLE*      N/A     34  27  75 CALM      30.19S
ABINGDON*      CLEAR     34  27  75 W3        30.12R
BRISTOL        PTCLDY    35  27  72 W3        30.15R
MORRISTOWN*    PTCLDY    37  27  65 NW5       30.18S WCI  34
SEVIERVILLE*   CLEAR     34  30  86 CALM      30.19F
KNOXVILLE      CLEAR     36  31  82 CALM      30.19S
LAFOLLETTE*    PTCLDY    30  28  93 CALM      30.23R
OAK RIDGE      CLEAR     33  30  88 CALM      30.21S
CROSSVILLE     CLEAR     28  24  85 CALM      30.17F
NASHVILLE      CLEAR     34  23  64 CALM      30.24R
$$

...KEY TO REMARKS...
VSB - VISIBILITY IN MILES
WCI - WIND CHILL INDEX
HX  - HEAT INDEX

$$



USA.gov is the U.S. government's official web portal to all federal, state and local government web resources and services.